Location: Biharia
(46.4333°N, 22.8000°E)
Time: 16:56:16
(UTC+00:00)

FENGYUN 1C DEB - Pass Details

Date: 10 August 2022
Orbit: 796 x 915 km, 98.9° (Epoch: 24 September)

Event Time Altitude Azimuth Distance (km) Brightness Sun altitude
Rises 23:07:33 0° 17° (NNE) 3,465 ? -27.8°
Reaches altitude 10° 23:10:00 10° 20° (NNE) 2,505 ? -27.7°
Maximum altitude 23:15:31 64° 102° (ESE) 925 ? -27.5°
Enters shadow 23:15:33 64° 105° (ESE) 925 ? -27.5°
